Cape May, NJ

6:50 PM EST on December 09, 2016 (GMT -0500)
Cape May County

Weather History for KWWD - October, 2011

Change the Weather History Date:

Tuesday, October 25, 2011

  Actual Average Record
Temperature  
Mean Temperature 58 °F -  
Max Temperature 62 °F 60 °F 78 °F (2001)
Min Temperature 53 °F 45 °F 33 °F (2003)
Degree Days  
Heating Degree Days 8    
Growing Degree Days 8 (Base 50)    
Moisture  
Dew Point 44 °F    
Average Humidity 62    
Maximum Humidity 88    
Minimum Humidity 42    
Precipitation  
Precipitation 0.00 in - - ()
Sea Level Pressure  
Sea Level Pressure 30.09 in    
Wind  
Wind Speed 7 mph (WNW)    
Max Wind Speed 16 mph    
Max Gust Speed 23 mph    
Visibility 10 miles    
Events      
Averages and records for this station are not official NWS values.
T = Trace of Precipitation, MM = Missing Value Source: NWS Daily Summary

Daily Weather History Graph

Daily Weather History Graph

Search for Another Location

Airport or City:

Trip Planner

Search our weather history database for the weather conditions in past years. The results will help you decide how hot, cold, wet, or windy it might be!

Date:

Astronomy

Oct. 25, 2011 Rise Set
Actual Time 7:19 AM EDT 6:07 PM EDT
Civil Twilight 6:51 AM EDT 6:34 PM EDT
Nautical Twilight 6:20 AM EDT 7:06 PM EDT
Astronomical Twilight 5:49 AM EDT 7:37 PM EDT
Moon 5:48 AM EDT (10/25) 5:07 PM EDT (10/25)
Length of Visible Light 11h 43m
Length of Day
10h 48m
Waning Crescent, 2% of the Moon is Illuminated
Oct 25
Waning Crescent
Oct 26
New
Nov 2
First Quarter
Nov 10
Full
Nov 18
Last Quarter

Hourly Weather History & Observations

Time (EDT) Temp. Dew Point Humidity Pressure Visibility Wind Dir Wind Speed Gust Speed Precip Events Conditions
12:15 AM 55.4 °F 50.0 °F 82% 30.03 in 10.0 mi Calm Calm - N/A   Clear
12:35 AM 55.4 °F 51.8 °F 88% 30.03 in 10.0 mi WNW 4.6 mph - N/A   Clear
12:55 AM 55.4 °F 51.8 °F 88% 30.03 in 10.0 mi WNW 6.9 mph - N/A   Clear
1:15 AM 57.2 °F 51.8 °F 82% 30.03 in 9.0 mi WNW 6.9 mph - N/A   Clear
1:35 AM 57.2 °F 51.8 °F 82% 30.04 in 10.0 mi WNW 6.9 mph - N/A   Clear
1:55 AM 57.2 °F 51.8 °F 82% 30.04 in 10.0 mi WNW 8.1 mph - N/A   Clear
2:15 AM 57.2 °F 50.0 °F 77% 30.04 in 10.0 mi NW 8.1 mph - N/A   Clear
2:35 AM 57.2 °F 48.2 °F 72% 30.04 in 10.0 mi NW 12.7 mph 21.9 mph N/A   Clear
3:15 AM 55.4 °F 46.4 °F 72% 30.05 in 10.0 mi NW 11.5 mph 19.6 mph N/A   Clear
3:35 AM 55.4 °F 46.4 °F 72% 30.05 in 10.0 mi NW 9.2 mph 17.3 mph N/A   Clear
3:55 AM 55.4 °F 46.4 °F 72% 30.05 in 10.0 mi NW 8.1 mph - N/A   Clear
4:15 AM 55.4 °F 44.6 °F 67% 30.06 in 10.0 mi NW 9.2 mph 19.6 mph N/A   Clear
4:35 AM 55.4 °F 44.6 °F 67% 30.06 in 10.0 mi NW 9.2 mph - N/A   Clear
4:55 AM 55.4 °F 44.6 °F 67% 30.07 in 10.0 mi NW 9.2 mph 16.1 mph N/A   Clear
5:15 AM 55.4 °F 44.6 °F 67% 30.07 in 10.0 mi NNW 6.9 mph - N/A   Clear
5:35 AM 53.6 °F 44.6 °F 72% 30.08 in 10.0 mi NW 9.2 mph - N/A   Clear
5:55 AM 55.4 °F 44.6 °F 67% 30.08 in 10.0 mi NW 8.1 mph - N/A   Clear
6:15 AM 55.4 °F 44.6 °F 67% 30.09 in 10.0 mi NW 6.9 mph - N/A   Clear
6:35 AM 55.4 °F 44.6 °F 67% 30.10 in 10.0 mi NW 6.9 mph - N/A   Clear
6:55 AM 55.4 °F 44.6 °F 67% 30.11 in 10.0 mi WNW 6.9 mph - N/A   Clear
7:15 AM 55.4 °F 44.6 °F 67% 30.12 in 10.0 mi WNW 5.8 mph - N/A   Clear
7:35 AM 55.4 °F 44.6 °F 67% 30.13 in 10.0 mi West 8.1 mph - N/A   Clear
7:55 AM 55.4 °F 44.6 °F 67% 30.14 in 10.0 mi West 9.2 mph - N/A   Clear
8:15 AM 55.4 °F 46.4 °F 72% 30.15 in 10.0 mi West 9.2 mph 16.1 mph N/A   Clear
8:35 AM 57.2 °F 44.6 °F 63% 30.15 in 10.0 mi WNW 11.5 mph 17.3 mph N/A   Clear
8:55 AM 57.2 °F 44.6 °F 63% 30.16 in 10.0 mi West 11.5 mph 18.4 mph N/A   Clear
11:35 AM 59.0 °F 41.0 °F 51% 30.15 in 10.0 mi WNW 13.8 mph 18.4 mph N/A   Clear
11:55 AM 60.8 °F 41.0 °F 48% 30.15 in 10.0 mi WNW 10.4 mph 21.9 mph N/A   Clear
12:15 PM 60.8 °F 39.2 °F 45% 30.14 in 10.0 mi WNW 12.7 mph 23.0 mph N/A   Clear
12:35 PM 60.8 °F 39.2 °F 45% 30.13 in 10.0 mi WNW 11.5 mph 20.7 mph N/A   Clear
12:55 PM 60.8 °F 39.2 °F 45% 30.12 in 10.0 mi WNW 15.0 mph 20.7 mph N/A   Clear
1:15 PM 60.8 °F 39.2 °F 45% 30.12 in 10.0 mi WNW 16.1 mph 23.0 mph N/A   Clear
1:35 PM 60.8 °F 37.4 °F 42% 30.11 in 10.0 mi WNW 15.0 mph 20.7 mph N/A   Clear
1:55 PM 60.8 °F 39.2 °F 45% 30.11 in 10.0 mi WNW 15.0 mph 21.9 mph N/A   Clear
2:15 PM 60.8 °F 39.2 °F 45% 30.10 in 10.0 mi WNW 13.8 mph 20.7 mph N/A   Clear
2:35 PM 62.6 °F 39.2 °F 42% 30.10 in 10.0 mi WNW 12.7 mph 20.7 mph N/A   Clear
2:55 PM 62.6 °F 39.2 °F 42% 30.10 in 10.0 mi WNW 10.4 mph 20.7 mph N/A   Clear
3:15 PM 62.6 °F 39.2 °F 42% 30.09 in 10.0 mi WNW 15.0 mph 21.9 mph N/A   Clear
3:35 PM 62.6 °F 39.2 °F 42% 30.09 in 10.0 mi WNW 12.7 mph 19.6 mph N/A   Clear
4:35 PM 62.6 °F 39.2 °F 42% 30.09 in 10.0 mi WNW 6.9 mph - N/A   Clear
4:55 PM 62.6 °F 39.2 °F 42% 30.09 in 10.0 mi WNW 6.9 mph - N/A   Clear
5:15 PM 62.6 °F 39.2 °F 42% 30.09 in 10.0 mi WNW 6.9 mph - N/A   Clear
5:35 PM 60.8 °F 39.2 °F 45% 30.10 in 10.0 mi WNW 4.6 mph - N/A   Clear
5:55 PM 60.8 °F 42.8 °F 52% 30.09 in 10.0 mi WNW 5.8 mph - N/A   Clear
6:15 PM 57.2 °F 42.8 °F 59% 30.10 in 10.0 mi West 4.6 mph - N/A   Clear
6:35 PM 57.2 °F 44.6 °F 63% 30.11 in 10.0 mi West 4.6 mph - N/A   Clear
7:15 PM 55.4 °F 44.6 °F 67% 30.12 in 10.0 mi Calm Calm - N/A   Clear
7:35 PM 53.6 °F 42.8 °F 67% 30.11 in 10.0 mi SW 3.5 mph - N/A   Clear
7:55 PM 53.6 °F 42.8 °F 67% 30.12 in 10.0 mi WSW 3.5 mph - N/A   Clear
8:15 PM 53.6 °F 42.8 °F 67% 30.12 in 10.0 mi SW 4.6 mph - N/A   Clear
8:35 PM 53.6 °F 42.8 °F 67% 30.11 in 10.0 mi Calm Calm - N/A   Clear
9:15 PM 55.4 °F 44.6 °F 67% 30.11 in 10.0 mi WSW 4.6 mph - N/A   Clear
9:35 PM 55.4 °F 44.6 °F 67% 30.11 in 10.0 mi WSW 5.8 mph - N/A   Clear
9:55 PM 55.4 °F 44.6 °F 67% 30.11 in 10.0 mi WSW 5.8 mph - N/A   Clear
10:15 PM 55.4 °F 44.6 °F 67% 30.10 in 10.0 mi WSW 5.8 mph - N/A   Clear
10:35 PM 55.4 °F 44.6 °F 67% 30.10 in 10.0 mi WSW 4.6 mph - N/A   Clear
10:55 PM 55.4 °F 46.4 °F 72% 30.10 in 10.0 mi WSW 5.8 mph - N/A   Clear
11:15 PM 53.6 °F 44.6 °F 72% 30.09 in 10.0 mi SW 4.6 mph - N/A   Clear
11:35 PM 55.4 °F 44.6 °F 67% 30.09 in 10.0 mi SW 4.6 mph - N/A   Clear